CW4498 Weather Reports


time (UTC)temp
F
wind
direction
speed
knots
gust
knots
rain 1hr
in
rain 24hr
in
rain mn
in
humidity
%
barometer
mb
20260507214536 63 19 4.3 14.8 0.00 0.06 0.05 25 1025.7
20260507213033 64 277 1.7 5.2 0.00 0.06 0.05 28 1026.0
20260507211534 62 287 3.5 15.6 0.00 0.06 0.05 28 1026.2
20260507210029 63 338 7.8 13.9 0.00 0.06 0.05 26 1026.8
20260507204528 65 28 0.9 5.2 0.00 0.06 0.05 29 1027.0
20260507203032 63 11 0.0 7.0 0.00 0.06 0.05 30 1027.3
20260507201524 60 122 0.0 6.1 0.00 0.06 0.05 32 1027.9
20260507200027 59 290 2.6 7.8 0.00 0.06 0.05 30 1028.3
20260507194523 58 12 0.9 13.0 0.00 0.06 0.05 31 1028.5
20260507193025 60 313 2.6 12.2 0.00 0.06 0.05 29 1028.9
20260507191522 62 119 2.6 8.7 0.00 0.06 0.05 28 1029.2
20260507190021 62 292 1.7 7.0 0.00 0.06 0.05 29 1029.5
20260507184519 62 338 1.7 4.3 0.00 0.06 0.05 29 1029.6
20260507183018 62 12 0.0 4.3 0.00 0.06 0.05 25 1029.8
20260507181517 62 128 0.9 4.3 0.00 0.06 0.05 27 1030.0
20260507180015 61 94 0.9 4.3 0.00 0.06 0.05 26 1030.4
20260507174512 59 300 3.5 7.8 0.00 0.06 0.05 25 1031.0
20260507173012 58 298 0.9 7.8 0.00 0.06 0.05 28 1031.3
20260507171513 57 286 3.5 9.6 0.00 0.06 0.05 25 1031.9
20260507170004 56 277 3.5 8.7 0.00 0.06 0.05 30 1032.3
20260507164600 55 268 3.5 9.6 0.01 0.06 0.05 32 1032.5
20260507163058 53 324 5.2 12.2 0.01 0.06 0.05 31 1032.6
20260507161557 53 300 3.5 8.7 0.01 0.06 0.05 32 1032.8
20260507160055 52 292 4.3 12.2 0.01 0.06 0.05 32 1033.0
20260507154551 51 265 7.0 14.8 0.00 0.05 0.04 35 1033.2
20260507153058 51 274 7.0 13.0 0.00 0.05 0.04 34 1033.2
20260507151545 50 298 7.0 15.6 0.01 0.05 0.04 34 1033.4
20260507150043 49 313 9.6 17.4 0.03 0.05 0.04 35 1033.5
20260507144541 48 267 8.7 16.5 0.04 0.05 0.04 35 1033.4
20260507143042 48 273 8.7 19.1 0.04 0.05 0.04 34 1033.4
20260507141538 47 245 11.3 20.0 0.03 0.04 0.03 35 1033.6
20260507140041 47 294 10.4 21.7 0.01 0.02 0.01 35 1033.7
20260507134539 47 32 8.7 20.9 0.00 0.01 0.00 35 1033.9
20260507133035 46 283 7.0 16.5 0.00 0.01 0.00 34 1033.6
20260507131545 46 264 5.2 13.9 0.00 0.01 0.00 33 1033.6
20260507130030 45 293 5.2 13.0 0.00 0.01 0.00 34 1033.7
20260507124527 44 263 6.1 13.9 0.00 0.01 0.00 34 1033.7
20260507123026 44 281 7.0 19.1 0.00 0.01 0.00 34 1033.7
20260507121523 43 293 7.8 17.4 0.00 0.01 0.00 37 1033.5
20260507120035 43 285 7.8 16.5 0.00 0.01 0.00 37 1033.3
20260507114524 43 273 7.8 15.6 0.00 0.01 0.00 36 1033.5
20260507113020 42 278 6.1 17.4 0.00 0.01 0.00 37 1033.6
20260507111517 40 293 5.2 14.8 0.00 0.01 0.00 38 1034.0
20260507110017 34 281 0.0 2.6 0.00 0.01 0.00 50 1034.3
20260507104515 34 271 0.0 4.3 0.00 0.01 0.00 49 1034.3
20260507103012 35 131 0.0 2.6 0.00 0.01 0.00 50 1034.3
20260507101511 36 119 0.0 2.6 0.00 0.01 0.00 47 1034.4
20260507100010 36 116 0.9 6.1 0.00 0.01 0.00 49 1034.5
20260507094509 42 109 1.7 7.8 0.00 0.01 0.00 38 1034.5
20260507093007 42 287 5.2 12.2 0.00 0.01 0.00 32 1034.4
20260507091504 41 289 2.6 13.0 0.00 0.01 0.00 34 1034.6
20260507090002 40 295 3.5 9.6 0.00 0.01 0.00 38 1034.8
20260507084558 36 236 6.1 13.9 0.00 0.01 0.00 46 1034.8
20260507083056 30 153 0.0 2.6 0.00 0.01 0.00 76 1035.2
20260507081555 31 254 0.0 5.2 0.00 0.01 0.00 73 1035.2
20260507080051 32 283 1.7 8.7 0.00 0.01 0.00 77 1035.2
20260507074600 28 314 0.9 4.3 0.00 0.01 0.00 93 1035.5
20260507073045 27 276 0.0 2.6 0.00 0.01 0.00 94 1035.8
20260507071543 27 316 0.0 1.7 0.00 0.01 0.00 94 1035.8
20260507070041 26 317 0.0 2.6 0.00 0.01 0.00 93 1035.8
20260507064541 26 316 0.0 0.9 0.00 0.01 0.01 93 1035.9
20260507063040 27 316 0.0 2.6 0.00 0.01 0.01 93 1035.8
20260507061539 27 109 0.0 1.7 0.00 0.01 0.01 93 1035.9
20260507060044 28 109 0.0 1.7 0.00 0.01 0.01 93 1035.8
20260507054549 28 109 0.0 2.6 0.00 0.01 0.01 93 1035.8
20260507053038 28 109 0.0 1.7 0.00 0.01 0.01 93 1035.8
20260507051537 27 109 0.0 0.0 0.00 0.01 0.01 93 1035.7
20260507050037 27 109 0.0 0.0 0.00 0.01 0.01 93 1035.5
20260507044541 28 109 0.0 0.0 0.00 0.01 0.01 92 1035.5
20260507043036 28 109 0.0 0.0 0.00 0.01 0.01 92 1035.6
20260507041537 28 109 0.0 0.0 0.00 0.01 0.01 92 1035.8
20260507040036 28 109 0.0 0.0 0.00 0.01 0.01 92 1035.6
20260507034534 28 109 0.0 0.0 0.00 0.01 0.01 91 1035.6
20260507033034 28 109 0.0 0.0 0.00 0.01 0.01 91 1035.5
20260507031533 29 109 0.0 0.0 0.00 0.01 0.01 90 1035.4
20260507030037 29 109 0.0 0.9 0.00 0.01 0.01 89 1035.2
20260507024533 30 109 0.0 0.9 0.00 0.01 0.01 88 1035.1
20260507023032 30 109 0.0 0.0 0.00 0.01 0.01 87 1035.1
20260507021530 31 130 0.0 1.7 0.00 0.01 0.01 86 1035.1
20260507020030 31 117 0.0 1.7 0.00 0.01 0.01 84 1034.9
20260507014543 32 130 0.9 2.6 0.00 0.01 0.01 82 1035.0
20260507013028 32 115 0.0 2.6 0.00 0.01 0.01 82 1035.0
20260507011529 33 178 0.0 3.5 0.01 0.01 0.01 81 1034.9
20260507010032 33 115 1.7 6.1 0.01 0.01 0.01 81 1034.6
20260507004528 33 115 0.9 4.3 0.01 0.01 0.01 79 1034.6
20260507003027 34 128 0.0 4.3 0.01 0.01 0.01 78 1034.5
20260507001528 35 128 0.9 4.3 0.00 0.00 0.00 77 1034.4
20260507000035 35 87 0.0 1.7 0.00 0.00 0.00 77 1034.4
20260506234525 34 295 0.0 0.9 0.00 0.00 0.00 78 1034.4
20260506233025 34 295 0.0 0.0 0.00 0.00 0.00 78 1034.5
20260506231524 35 295 0.0 0.9 0.00 0.00 0.00 77 1034.7
20260506230023 34 295 0.0 3.5 0.00 0.00 0.00 80 1034.6
20260506224523 35 351 0.0 1.7 0.00 0.04 0.00 78 1034.4
20260506223021 34 23 0.0 5.2 0.00 0.04 0.00 80 1034.4
20260506221521 34 327 0.0 1.7 0.00 0.04 0.00 83 1034.6
20260506220023 33 319 0.0 2.6 0.00 0.04 0.00 79 1034.8